Hartford, CT

9:07 AM EDT on March 23, 2017 (GMT -0400)
Hartford-brainard

Weather History for KHFD - April, 2013

Change the Weather History Date:

Sunday, April 7, 2013

  Actual Average Record
Temperature  
Mean Temperature 44 °F -  
Max Temperature 55 °F 53 °F 90 °F (1929)
Min Temperature 33 °F 33 °F 13 °F (1982)
Degree Days  
Heating Degree Days 22    
Moisture  
Dew Point 32 °F    
Average Humidity 62    
Maximum Humidity 83    
Minimum Humidity 43    
Precipitation  
Precipitation 0.00 in - - ()
Sea Level Pressure  
Sea Level Pressure 30.17 in    
Wind  
Wind Speed 8 mph (South)    
Max Wind Speed 24 mph    
Max Gust Speed 34 mph    
Visibility 10 miles    
Events      
Averages and records for this station are not official NWS values.
T = Trace of Precipitation, MM = Missing Value Source: NWS Daily Summary

Daily Weather History Graph

Daily Weather History Graph

Search for Another Location

Airport or City:

Trip Planner

Search our weather history database for the weather conditions in past years. The results will help you decide how hot, cold, wet, or windy it might be!

Date:

Astronomy

Apr. 07, 2013 Rise Set
Actual Time 6:23 AM EDT 7:22 PM EDT
Civil Twilight 5:54 AM EDT 7:51 PM EDT
Nautical Twilight 5:20 AM EDT 8:25 PM EDT
Astronomical Twilight 4:45 AM EDT 9:00 PM EDT
Moon 4:41 AM EDT (4/7) 4:50 PM EDT (4/7)
Length of Visible Light 13h 56m
Length of Day
12h 59m
Waning Crescent, 8% of the Moon is Illuminated
Apr 7
Waning Crescent
Apr 10
New
Apr 18
First Quarter
Apr 25
Full
May 2
Last Quarter

Hourly Weather History & Observations

Time (EDT) Temp. Windchill Dew Point Humidity Pressure Visibility Wind Dir Wind Speed Gust Speed Precip Events Conditions
12:53 AM 34.0 °F - 21.9 °F 61% 30.31 in 10.0 mi Calm Calm - N/A   Clear
1:53 AM 35.1 °F 32.2 °F 24.1 °F 64% 30.30 in 10.0 mi South 3.5 mph - N/A   Clear
2:53 AM 33.1 °F - 25.0 °F 72% 30.28 in 10.0 mi Calm Calm - N/A   Clear
3:53 AM 35.1 °F - 26.1 °F 70% 30.27 in 10.0 mi Calm Calm - N/A   Clear
4:53 AM 34.0 °F 28.0 °F 26.1 °F 73% 30.28 in 10.0 mi South 6.9 mph - N/A   Clear
5:53 AM 35.1 °F 28.6 °F 28.0 °F 76% 30.28 in 10.0 mi South 8.1 mph - N/A   Clear
6:53 AM 35.1 °F 31.0 °F 28.9 °F 78% 30.30 in 10.0 mi South 4.6 mph - N/A   Clear
7:53 AM 37.9 °F 33.5 °F 32.0 °F 79% 30.31 in 10.0 mi SSE 5.8 mph - N/A   Mostly Cloudy
8:53 AM 42.1 °F 37.1 °F 32.0 °F 67% 30.29 in 10.0 mi South 8.1 mph - N/A   Scattered Clouds
9:53 AM 45.0 °F 38.5 °F 28.9 °F 53% 30.27 in 10.0 mi South 13.8 mph 23.0 mph N/A   Overcast
10:53 AM 48.0 °F - 28.0 °F 46% 30.24 in 10.0 mi SSW 13.8 mph 21.9 mph N/A   Clear
11:53 AM 52.0 °F - 30.0 °F 43% 30.22 in 10.0 mi South 16.1 mph 24.2 mph N/A   Clear
12:53 PM 53.1 °F - 32.0 °F 45% 30.17 in 10.0 mi South 19.6 mph 29.9 mph N/A   Clear
1:53 PM 54.0 °F - 32.0 °F 43% 30.14 in 10.0 mi South 20.7 mph 28.8 mph N/A   Clear
2:53 PM 54.0 °F - 33.1 °F 45% 30.11 in 10.0 mi South 17.3 mph 27.6 mph N/A   Clear
3:53 PM 53.1 °F - 32.0 °F 45% 30.07 in 10.0 mi South 19.6 mph 29.9 mph N/A   Clear
4:53 PM 54.0 °F - 32.0 °F 43% 30.02 in 10.0 mi South 24.2 mph 34.5 mph N/A   Clear
5:53 PM 52.0 °F - 36.0 °F 54% 30.04 in 10.0 mi South 20.7 mph 24.2 mph N/A   Clear
6:53 PM 51.1 °F - 37.9 °F 61% 30.04 in 10.0 mi South 17.3 mph 24.2 mph N/A   Mostly Cloudy
7:53 PM 50.0 °F - 39.0 °F 66% 30.04 in 10.0 mi South 13.8 mph 21.9 mph 0.00 in   Mostly Cloudy
8:53 PM 48.9 °F - 39.9 °F 71% 30.04 in 10.0 mi South 12.7 mph 19.6 mph N/A   Clear
9:53 PM 48.0 °F - 42.1 °F 80% 30.03 in 10.0 mi South 12.7 mph - N/A   Clear
10:53 PM 48.0 °F - 42.1 °F 80% 30.03 in 10.0 mi South 8.1 mph - N/A   Partly Cloudy
11:53 PM 48.0 °F - 43.0 °F 83% 30.04 in 10.0 mi South 3.5 mph - N/A   Scattered Clouds